GLOBALSTAR M061 [-]

Last updated on Fri Dec 29 2023 00:02:56 GMT+0000 (Coordinated Universal Time)

1 25964U 99062D 23361.71030714 -.00000103 00000+0 -36525-3 0 9999 2 25964 51.9770 145.3954 0006463 45.5565 54.5317 11.76755844 57901
UTC large
Height (km)
Speed (km/s)
/
Latitude / Longitude
Inclination (degrees)
Orbital Period (minutes)
Azimuth
Elevation
Range (km)
Doppler Factor

Next 0 passes for location: London (51.5072 / 0.1276)

Sorry there are no passes over London.
GLOBALSTAR M061 [-]